Location: Unspecified
(0.0000°N, 0.0000°E)
Time: 13:14:16
(UTC+00:00)

FENGYUN 1C DEB - Pass Details

Date: 29 February 2024
Orbit: 775 x 868 km, 98.6° (Epoch: 09 April)

Event Time Altitude Azimuth Distance (km) Brightness Sun altitude
Rises 18:30:17 0° 169° (S) 3,255 ? -4.4°
Reaches altitude 10° 18:32:35 10° 169° (S) 2,329 ? -5.0°
Maximum altitude 18:37:43 85° 257° (WSW) 792 ? -6.3°
Drops below altitude 10° 18:42:56 10° 346° (NNW) 2,360 ? -7.6°
Sets 18:45:16 0° 347° (NNW) 3,300 ? -8.2°
